Location: Unspecified
(0.0000°N, 0.0000°E)
Time: 17:52:11
(UTC+00:00)

A-11 Canister half - Visible Passes

Search period start: 19 September 2014 00:00
Search period end: 29 September 2014 00:00
Orbit: 1518 x 1682 km, 47.2° (Epoch: 18 September)

Date Brightness Start Highest point End Pass type
(mag) Time Alt. Az. Time Alt. Az. Time Alt. Az.
24 Sep 10.9 20:09:58 10° SSE 20:10:38 11° SSE 20:10:38 11° SSE visible
25 Sep 10.7 19:47:44 10° SSE 19:49:20 12° SSE 19:49:20 12° SSE visible
26 Sep 10.7 19:25:42 10° SSE 19:28:05 12° SE 19:28:05 12° SE visible
26 Sep 10.9 21:24:59 10° SSW 21:26:19 15° SSW 21:26:19 15° SSW visible
27 Sep 10.6 19:04:09 10° SSE 19:06:08 11° SE 19:06:55 11° SE visible
27 Sep 10.5 21:02:08 10° SSW 21:05:09 23° SSW 21:05:09 23° SSW visible
28 Sep 10.1 20:39:19 10° SSW 20:44:03 32° SSW 20:44:03 32° SSW visible
